| time (UTC) | temp F | wind direction | speed MPH | gust MPH | rain 1hr in | rain 24hr in | rain mn in | humidity % | barometer mb |
| 20260504233054 | 50 | 0 | 0.0 | 1.0 | 0.00 | 0.00 | 0.00 | 89 | 1025.7 |
| 20260504231555 | 48 | 0 | 0.0 | 0.0 | 0.00 | 0.00 | 0.00 | 89 | 1025.6 |
| 20260504230056 | 49 | 0 | 0.0 | 0.0 | 0.00 | 0.00 | 0.00 | 88 | 1025.4 |
| 20260504224559 | 49 | 0 | 0.0 | 0.0 | 0.00 | 0.00 | 0.00 | 87 | 1025.2 |
| 20260504223109 | 50 | 0 | 0.0 | 0.0 | 0.00 | 0.00 | 0.00 | 87 | 1025.0 |
| 20260504221558 | 51 | 0 | 0.0 | 1.0 | 0.00 | 0.00 | 0.00 | 86 | 1025.0 |
| 20260504220114 | 51 | 0 | 0.0 | 2.0 | 0.00 | 0.00 | 0.00 | 86 | 1025.0 |
| 20260504214556 | 52 | 0 | 0.0 | 3.0 | 0.00 | 0.00 | 0.00 | 86 | 1024.6 |
| 20260504213101 | 52 | 88 | 0.0 | 4.0 | 0.00 | 0.00 | 0.00 | 87 | 1024.7 |
| 20260504211556 | 52 | 104 | 0.0 | 3.0 | 0.00 | 0.00 | 0.00 | 88 | 1024.9 |
| 20260504210054 | 51 | 0 | 0.0 | 3.0 | 0.00 | 0.00 | 0.00 | 89 | 1024.9 |
| 20260504204553 | 50 | 0 | 0.0 | 2.0 | 0.00 | 0.00 | 0.00 | 89 | 1024.9 |
| 20260504203055 | 49 | 0 | 0.0 | 0.0 | 0.00 | 0.00 | 0.00 | 88 | 1024.9 |
| 20260504201645 | 49 | 0 | 0.0 | 0.0 | 0.00 | 0.00 | 0.00 | 88 | 1024.9 |
| 20260504200100 | 49 | 0 | 0.0 | 0.0 | 0.00 | 0.00 | 0.00 | 87 | 1024.9 |
| 20260504194559 | 49 | 0 | 0.0 | 0.0 | 0.00 | 0.00 | 0.00 | 87 | 1025.0 |
| 20260504193506 | 50 | 0 | 0.0 | 1.0 | 0.00 | 0.00 | 0.00 | 86 | 1025.0 |
| 20260504191601 | 50 | 0 | 0.0 | 2.0 | 0.00 | 0.00 | 0.00 | 87 | 1025.1 |
| 20260504190108 | 50 | 0 | 0.0 | 1.0 | 0.00 | 0.00 | 0.00 | 87 | 1025.1 |
| 20260504184614 | 50 | 0 | 0.0 | 0.0 | 0.00 | 0.00 | 0.00 | 86 | 1025.2 |
| 20260504183101 | 51 | 0 | 0.0 | 1.0 | 0.00 | 0.00 | 0.00 | 86 | 1025.4 |
| 20260504181553 | 51 | 0 | 0.0 | 2.0 | 0.00 | 0.00 | 0.00 | 86 | 1025.2 |
| 20260504180054 | 51 | 0 | 0.0 | 2.0 | 0.00 | 0.00 | 0.00 | 86 | 1025.3 |
| 20260504174559 | 51 | 94 | 0.0 | 2.0 | 0.00 | 0.00 | 0.00 | 86 | 1025.4 |
| 20260504173056 | 51 | 0 | 0.0 | 1.0 | 0.00 | 0.00 | 0.00 | 86 | 1025.5 |
| 20260504171557 | 51 | 0 | 0.0 | 1.0 | 0.00 | 0.00 | 0.00 | 86 | 1025.5 |
| 20260504090137 | 64 | 175 | 0.0 | 4.0 | 0.00 | 0.00 | 0.00 | 70 | 1024.9 |
| 20260504081553 | 66 | 217 | 2.0 | 7.0 | 0.00 | 0.00 | 0.00 | 66 | 1025.0 |
| 20260504050107 | 69 | 0 | 0.0 | 3.0 | 0.00 | 0.00 | 0.00 | 56 | 1025.6 |
| 20260504044602 | 70 | 0 | 0.0 | 6.0 | 0.00 | 0.00 | 0.00 | 56 | 1025.8 |
| 20260504043058 | 69 | 163 | 1.0 | 4.0 | 0.00 | 0.00 | 0.00 | 58 | 1025.9 |
| 20260504041554 | 69 | 93 | 1.0 | 3.0 | 0.00 | 0.00 | 0.00 | 59 | 1026.2 |
| 20260504040106 | 68 | 75 | 0.0 | 6.0 | 0.00 | 0.00 | 0.00 | 59 | 1026.5 |
| 20260504034600 | 67 | 0 | 0.0 | 1.0 | 0.00 | 0.00 | 0.00 | 60 | 1026.8 |
| 20260504033126 | 66 | 0 | 0.0 | 3.0 | 0.00 | 0.00 | 0.00 | 61 | 1027.0 |
| 20260504031558 | 66 | 75 | 0.0 | 3.0 | 0.00 | 0.00 | 0.00 | 64 | 1027.1 |
| 20260504030101 | 65 | 0 | 0.0 | 2.0 | 0.00 | 0.00 | 0.00 | 66 | 1027.3 |
| 20260504024559 | 64 | 78 | 0.0 | 3.0 | 0.00 | 0.00 | 0.00 | 66 | 1027.5 |
| 20260504023102 | 64 | 0 | 0.0 | 3.0 | 0.00 | 0.00 | 0.00 | 68 | 1027.4 |
| 20260504021556 | 63 | 114 | 1.0 | 4.0 | 0.00 | 0.00 | 0.00 | 70 | 1027.3 |
| 20260504020100 | 63 | 0 | 1.0 | 6.0 | 0.00 | 0.00 | 0.00 | 69 | 1027.4 |
| 20260504014558 | 62 | 0 | 1.0 | 5.0 | 0.00 | 0.00 | 0.00 | 70 | 1027.5 |
| 20260504013106 | 61 | 96 | 1.0 | 5.0 | 0.00 | 0.00 | 0.00 | 73 | 1027.6 |
| 20260504011557 | 60 | 0 | 0.0 | 4.0 | 0.00 | 0.00 | 0.00 | 76 | 1027.8 |
| 20260504010111 | 59 | 79 | 0.0 | 4.0 | 0.00 | 0.00 | 0.00 | 78 | 1027.9 |
| 20260504004625 | 58 | 0 | 0.0 | 6.0 | 0.00 | 0.00 | 0.00 | 81 | 1027.8 |
| 20260504003057 | 56 | 86 | 0.0 | 3.0 | 0.00 | 0.00 | 0.00 | 84 | 1027.8 |
| 20260504001612 | 55 | 116 | 0.0 | 3.0 | 0.00 | 0.00 | 0.00 | 87 | 1027.6 |
| 20260504000103 | 53 | 0 | 0.0 | 2.0 | 0.00 | 0.00 | 0.00 | 88 | 1027.7 |
| 20260503234557 | 52 | 61 | 0.0 | 4.0 | 0.00 | 0.00 | 0.00 | 90 | 1027.5 |